{"data":{"norad_id":55935,"epoch":"2026-05-25T02:20:39.869088Z","epoch_age_seconds":69727,"freshness":"FRESH","line1":"1 55935U 23037X   26145.09768367 -.00000280  00000+0 -15683-4 0  9994","line2":"2 55935  69.9998  91.8765 0003268 267.3443  92.7342 14.98330428175421","mean_motion":14.98330428,"eccentricity":0.0003268,"inclination_deg":69.9998,"raan_deg":91.8765,"arg_perigee_deg":267.3443,"mean_anomaly_deg":92.7342,"bstar":-1.5683e-5,"rev_number":17542,"period_min":96.106971672606,"perigee_km":569.78324478581,"apogee_km":574.32588999426,"semimajor_km":6950.19156739,"source":"CELESTRAK","updated_at":"2026-05-25T13:38:17.914604Z"}}